Location: Newark
(25.0000°N, 73.5000°E)
Time: 04:43:48
(UTC+00:00)

NOAA 15 - Pass Details

Date: 01 March 2020
Orbit: 797 x 813 km, 98.7° (Epoch: 04 April)

Event Time Altitude Azimuth Distance (km) Brightness Sun altitude
Rises 14:03:20 0° 173° (S) 3,317 7.7 -13.3°
Reaches altitude 10° 14:05:41 10° 175° (S) 2,390 7.0 -13.8°
Maximum altitude 14:10:56 67° 258° (WSW) 877 5.0 -15.0°
Drops below altitude 10° 14:16:13 10° 341° (NNW) 2,401 7.3 -16.2°
Sets 14:18:35 0° 344° (NNW) 3,335 8.0 -16.7°
